SCP
0 -0 -0 -0 0 0 0 0 -0 -0 -0 -0 0 0 0 -0 -0 -0 -0 0 -0 0 -0 -0 -0 -0 -0 -0 -0 -0 -0 -0 -0 -0 -0 -0 -0 -0 -0 -0 -0 0 0 0 0 0 0 0 0
-0 -0 0 0 0 0 0 0 0 -0 -0 -0 -0 0 -0 -0 -0 -0 -0 0 -0 0 0 -0 -0 -0 -0 -0 -0 -0 -0 -0 -0 -0 -0 -0 -0 -0 0 0 0 0 0 0 0 0 0 0 0
-0 0 0 0 0 0 0 -0 -0 -0 -0 -0 -0 -0 -0 -0 -0 -0 0 0 0 0 0 0 -0 -0 -0 -0 -0 0 0 0 0 0 0 0 0 0 0 0 0 0 0 0 0 0 0 0 0
0 0 0 0 0 0 0 -0 -0 0 -0 -0 -0 -0 -0 -0 -0 0 0 -0 0 -0 -0 0 -0 -0 0 0 0 0 0 0 0 0 0 0 0 0 0 0 0 0 0 0 0 0 0 0 0
0 0 0 0 0 0 0 -0 -0 0 -0 -0 -0 -0 -0 0 -0 -0 -0 0 0 -0 -0 -0 0 0 0 0 0 0 0 0 0 0 0 0 0 0 0 0 0 0 0 0 0 0 0 0 0
0 0 0 0 0 0 -0 -0 -0 -0 0 0 0 0 0 -0 -0 -0 -0 -0 0 0 0 0 0 0 0 0 0 0 0 0 0 0 0 0 0 0 0 0 0 0 0 0 0 0 0 0 0
0 0 0 0 0 0 0 -0 -0 0 0 0 0 0 -0 -0 -0 -0 -0 -0 -0 0 0 0 0 0 0 1 1 1 1 1 1 0 0 0 -0 0 0 0 0 0 0 1 1 1 1 1 0
0 0 0 0 0 0 0 -0 -0 -0 0 0 0 0 0 0 0 -0 -0 -0 0 0 0 0 0 0 0 0 1 1 1 0 0 1 1 1 0 0 0 0 0 0 0 1 1 1 1 1 1
0 0 0 0 -0 0 -0 -0 -0 -0 0 0 -0 0 0 -0 -0 -0 -0 -0 0 0 0 0 0 0 0 0 0 0 0 0 0 0 0 0 1 1 1 1 1 1 1 1 1 1 1 1 0
0 0 0 0 0 -0 0 -0 0 0 0 0 0 0 0 0 -0 0 0 0 0 0 0 0 0 0 0 0 0 0 0 0 0 0 0 0 0 0 0 1 0 0 1 1 1 1 1 1 0
0 0 0 0 -0 -0 0 0 -0 0 0 0 0 0 0 0 -0 0 0 0 0 0 0 0 0 0 0 0 0 0 0 0 0 0 0 0 0 0 0 0 0 0 0 1 1 1 1 1 1
0 0 0 0 0 0 0 0 0 0 0 0 0 -0 -0 -0 0 0 0 0 0 0 0 0 0 -0 -0 -0 -0 0 0 0 0 0 0 0 0 0 0 0 0 0 0 0 0 0 0 1 1
0 0 0 0 0 0 0 0 0 0 0 0 0 0 0 0 0 0 0 0 -0 -0 0 -0 0 -0 -0 0 0 0 0 0 0 0 0 0 0 0 0 0 0 0 0 0 0 0 0 0 0
0 0 0 0 0 0 0 0 0 0 0 0 0 0 0 0 0 0 -0 -0 -0 -0 0 -0 -0 -0 -0 -0 -0 -0 0 0 0 0 0 0 0 0 0 0 0 0 0 0 0 0 0 0 0
0 0 0 0 0 0 0 0 0 0 0 0 0 0 0 0 0 0 0 0 -0 -0 0 -0 0 -0 -0 -0 -0 -0 0 0 0 0 0 0 0 0 0 0 0 0 0 0 0 0 0 0 0
0 0 0 0 0 0 0 0 0 0 0 0 0 0 0 0 0 0 0 0 0 0 0 0 0 0 0 0 0 0 0 0 0 0 0 0 0 0 0 0 0 0 0 0 0 0 0 0 0
0 0 0 0 0 0 0 0 0 -0 -0 -0 -0 0 0 0 0 0 0 0 0 0 0 0 0 0 0 0 0 0 0 0 0 0 0 0 0 0 0 0 0 0 0 0 0 0 0 0 0
0 0 0 0 0 0 0 0 0 -0 -0 -0 -0 -0 -0 0 0 0 0 0 0 0 0 0 0 0 0 0 0 0 0 0 0 0 0 0 0 0 0 0 0 0 0 0 0 0 0 0 0
0 0 0 0 0 0 0 0 0 0 -0 -0 0 -0 0 0 0 0 0 0 0 0 0 0 0 0 0 0 0 0 0 0 0 0 0 0 0 0 0 0 0 0 0 0 0 0 0 0 0
0 0 0 0 0 0 0 0 0 0 -0 -0 -0 0 0 0 0 0 0 0 0 0 0 0 0 0 0 0 0 0 0 0 0 0 0 0 0 0 0 0 0 0 0 0 0 0 0 0 0
0 0 0 0 0 0 0 0 0 0 0 0 0 0 0 0 0 0 0 0 0 0 0 0 0 0 0 0 0 0 0 0 0 0 0 0 0 0 0 0 0 0 0 0 0 0 0 0 0
0 0 0 0 0 0 0 0 0 0 0 0 0 0 0 0 0 0 0 0 0 0 0 0 0 0 0 0 0 0 0 0 0 0 0 0 0 0 0 0 0 0 0 0 0 0 0 0 0
0 0 0 0 0 0 0 0 0 0 0 0 0 0 0 0 0 0 0 0 0 0 0 0 0 0 0 0 0 0 0 0 0 0 0 0 0 0 0 0 0 0 0 0 0 0 0 0 0
0 0 0 0 0 0 0 0 0 0 0 0 0 0 0 0 0 0 0 0 0 0 0 0 0 0 0 0 0 0 0 0 0 0 0 0 0 0 0 0 0 0 0 0 0 0 0 0 0
0 0 0 0 0 0 0 0 0 0 0 0 0 0 0 0 0 0 0 0 0 0 0 0 0 0 0 0 0 0 0 0 0 0 0 0 0 0 0 0 0 0 0 0 0 0 0 0 0
0 0 0 0 0 0 0 0 0 0 0 0 0 0 0 0 0 0 0 0 0 0 0 0 0 0 0 0 0 0 0 0 0 0 0 0 0 0 0 0 0 0 0 0 0 0 0 0 0
0 0 0 0 0 0 0 0 0 0 0 0 0 0 0 0 0 0 0 0 0 0 0 0 0 0 0 0 0 0 0 0 0 0 0 0 0 0 0 0 0 0 0 0 0 0 0 0 0
0 0 0 0 0 0 0 0 0 0 -0 0 0 0 0 0 0 0 0 0 0 0 0 0 0 0 0 0 0 0 0 0 0 0 0 0 0 0 0 0 0 0 0 0 0 0 0 0 0
0 0 0 0 0 0 0 0 0 0 0 0 0 0 0 0 0 0 0 0 0 0 0 0 0 0 0 0 0 0 0 0 0 0 0 0 0 0 0 0 0 0 0 0 0 0 0 0 0
0 0 0 0 0 0 0 0 0 0 0 0 0 0 0 0 0 0 0 0 0 0 0 0 0 0 0 0 0 0 0 0 0 0 0 0 0 0 0 0 0 0 0 0 0 0 0 -0 -0
Wind_Speed_500mb
3 2 3 2 4 5 7 7 3 19 14 4 20 1 7 12 10 8 17 27 28 19 18 12 13 13 12 13 14 15 13 12 10 10 10 10 12 15 16 16 14 12 12 13 14 13 13 14 14
3 3 4 1 4 15 8 6 20 8 12 25 21 14 10 11 13 13 13 20 18 23 23 21 18 14 12 12 10 9 9 8 7 7 5 4 7 11 14 14 13 13 13 14 15 16 17 18 19
5 5 4 4 4 10 11 2 11 20 20 11 10 15 8 9 11 5 12 10 11 17 14 12 11 11 12 13 12 10 9 9 9 7 5 3 4 6 10 14 16 17 18 20 22 22 22 23 23
7 4 8 8 18 5 5 13 25 27 13 6 20 20 17 19 3 11 15 8 9 22 14 11 9 7 8 9 10 10 9 8 7 7 6 6 6 8 11 14 17 19 21 23 25 26 27 27 28
7 4 7 9 8 2 3 9 19 17 11 8 13 15 13 18 15 13 20 15 13 19 15 11 10 7 5 6 10 11 10 9 9 10 11 12 13 14 16 18 21 23 25 27 28 30 31 31 32
5 3 11 14 11 3 1 11 12 11 19 24 21 17 10 12 14 22 16 14 17 15 14 12 9 7 6 4 6 9 12 14 14 14 14 16 18 20 22 24 26 28 30 31 32 33 33 35 35
7 5 7 12 18 16 14 14 9 19 27 17 8 10 9 18 24 26 23 20 17 15 13 11 9 6 5 3 4 8 12 14 17 18 18 19 23 25 27 31 34 36 37 38 39 39 39 39 40
8 6 9 3 9 14 11 8 10 15 11 11 11 8 12 24 29 26 26 24 21 19 14 11 10 6 4 4 5 7 10 14 16 19 23 25 27 30 33 36 39 41 43 43 44 46 46 46 46
4 7 14 12 25 17 16 12 6 10 15 10 8 17 32 30 26 22 21 21 19 18 17 13 9 9 11 7 9 14 17 19 21 23 27 27 31 35 39 42 42 44 46 47 48 49 49 50 53
5 9 7 5 15 25 21 17 18 10 11 14 29 37 34 31 26 17 19 24 23 24 22 19 17 16 16 16 17 19 21 27 30 33 33 34 40 43 44 45 45 45 47 49 47 46 48 51 53
4 9 8 7 16 41 26 18 8 29 8 21 42 42 37 33 32 29 27 22 19 20 18 19 21 23 22 21 20 22 26 29 33 38 42 45 47 48 48 49 50 50 51 50 49 49 45 42 42
6 5 6 20 30 26 30 26 25 0 7 22 36 45 46 41 34 27 21 21 21 19 18 21 27 31 35 34 33 29 26 26 30 34 37 40 43 46 49 50 51 53 53 53 55 57 58 57 57
3 10 7 23 22 26 34 22 13 10 27 37 43 42 43 38 34 32 33 35 33 25 18 22 27 32 39 38 39 40 34 31 32 34 35 37 41 45 47 48 51 55 56 57 58 59 61 63 62
2 13 18 22 25 22 28 15 11 16 37 37 40 39 40 38 38 38 37 35 31 26 23 21 23 24 31 32 33 34 29 30 35 40 43 40 38 39 43 46 50 53 56 57 59 59 60 60 61
5 10 20 20 27 16 26 11 15 43 39 38 38 42 41 41 36 28 28 26 20 17 16 15 12 16 20 22 25 28 26 28 32 36 42 44 42 43 45 48 49 51 52 57 61 62 62 63 63
5 3 19 16 25 16 22 25 16 45 50 46 42 39 43 45 35 30 25 20 13 11 9 8 12 16 19 19 20 22 21 26 30 33 38 42 45 48 51 52 53 55 57 59 61 63 65 61 54
2 12 13 11 24 14 17 10 34 53 51 48 49 48 49 45 38 32 26 19 12 9 6 5 11 17 21 23 23 26 29 29 33 37 39 41 44 49 55 61 63 65 67 65 64 64 64 65 64
13 10 5 6 13 19 29 14 18 55 58 59 50 44 46 43 46 35 30 24 20 16 13 13 18 22 26 31 34 33 35 37 42 43 44 48 55 60 66 71 77 79 79 75 71 69 65 64 60
10 8 7 4 5 19 29 17 19 47 46 44 47 50 49 48 42 38 34 30 30 28 26 25 27 27 34 42 45 45 44 45 48 52 55 58 65 70 75 79 84 89 88 88 82 77 69 64 49
9 7 5 5 3 13 14 19 6 37 55 57 53 51 50 45 48 43 40 39 38 32 33 35 35 38 46 49 51 51 51 54 56 59 65 72 78 85 89 92 94 93 94 93 88 81 74 56 45
7 8 8 3 6 7 8 12 11 13 25 31 40 43 43 49 49 48 41 40 36 35 37 41 41 45 49 48 45 46 50 56 61 64 79 87 94 99 102 102 100 95 86 65 65 66 65 60 49
9 7 10 7 6 9 5 12 10 16 20 24 37 45 54 54 54 45 40 38 38 39 39 37 38 43 41 36 35 42 49 61 70 83 94 103 105 108 105 101 93 84 70 62 61 56 55 53 56
4 5 6 4 5 4 5 9 9 5 19 21 22 30 42 48 44 39 38 34 35 33 30 31 30 23 24 29 36 47 61 74 85 95 103 107 102 95 91 84 80 76 63 59 58 59 59 54 53
22 10 10 6 1 10 7 11 10 10 8 3 9 21 31 36 36 34 29 30 26 22 19 14 17 21 25 35 48 62 76 90 99 101 98 88 84 82 76 69 65 62 65 67 68 57 55 60 60
5 9 3 6 7 4 4 7 13 6 8 9 20 26 25 28 24 19 23 21 16 13 10 13 18 27 40 53 66 79 90 97 97 92 77 81 83 65 61 59 56 57 58 65 60 66 62 57 55
11 8 7 6 3 4 3 9 2 3 11 13 21 27 26 20 13 14 13 15 12 8 9 18 30 43 56 70 81 90 94 89 83 73 80 75 73 67 68 65 66 67 66 65 60 59 57 61 57
10 9 6 11 3 6 1 5 15 6 5 16 19 23 25 12 11 12 14 11 6 6 18 31 44 58 71 82 89 87 82 79 75 70 66 64 64 64 64 65 64 63 62 60 57 56 52 53 62
4 21 7 3 6 7 4 7 8 10 18 18 20 34 20 10 13 15 13 6 4 17 30 43 57 71 79 82 79 75 73 66 62 60 60 61 61 63 65 65 63 63 59 56 53 54 50 49 54
10 8 8 6 2 7 5 5 9 17 19 24 30 23 13 14 17 15 8 3 15 27 41 56 68 75 77 75 71 67 59 59 59 58 58 60 62 63 64 64 63 62 58 53 49 49 49 50 48
3 8 13 9 10 3 2 12 5 8 13 14 20 12 15 19 19 13 3 12 25 39 53 64 72 74 71 69 64 55 55 56 59 60 60 60 61 60 61 60 59 56 52 49 49 47 45 44 42
Wind_Direction_500mb
227 263 39 143 195 107 86 86 45 124 151 108 135 160 111 49 24 77 134 105 132 140 122 135 147 134 124 113 119 131 135 137 138 142 155 173 183 184 189 191 197 206 219 228 232 236 242 251 251
166 120 111 185 119 116 81 344 127 105 126 123 112 113 82 71 50 112 109 109 147 146 148 151 147 147 142 128 114 117 129 130 130 131 136 154 187 197 206 219 230 237 243 248 252 253 255 258 259
138 127 165 81 104 117 123 256 135 112 123 133 106 71 56 19 18 76 121 115 150 161 145 126 123 141 151 151 147 139 140 145 144 140 138 164 209 230 242 250 257 262 264 263 264 267 266 264 265
165 117 64 101 118 92 60 149 142 127 97 100 119 83 85 26 63 125 130 132 178 166 146 121 130 128 138 163 174 174 166 165 168 174 180 199 236 250 259 267 269 269 272 273 272 270 267 266 267
104 82 91 107 91 2 306 159 140 117 109 128 149 112 83 36 52 131 165 136 140 153 124 116 110 103 119 164 184 199 202 200 204 215 220 225 232 243 254 262 267 270 273 276 277 276 273 271 271
91 85 121 122 103 84 295 174 115 96 117 118 98 94 75 67 88 88 103 114 103 116 128 126 104 93 106 150 189 206 215 222 230 238 245 251 253 255 259 262 264 267 271 272 273 273 274 274 272
107 89 110 126 114 118 141 143 101 119 130 71 91 89 101 96 102 100 105 107 116 113 99 84 72 56 67 110 188 211 216 224 233 242 248 253 257 257 257 261 263 264 266 269 271 271 270 270 270
103 96 130 58 133 121 142 109 102 114 87 92 116 128 134 128 116 109 103 107 107 100 90 77 60 49 334 280 240 235 236 233 235 241 244 244 251 256 258 259 260 262 264 265 267 271 272 270 269
67 116 134 135 150 140 146 143 83 89 109 66 70 133 136 128 126 123 109 90 82 80 68 60 28 15 17 333 279 259 263 257 252 258 259 259 264 272 275 273 271 269 268 268 268 270 269 270 269
43 107 107 138 147 148 140 147 132 143 120 75 102 125 131 132 133 135 117 99 87 78 68 54 38 22 8 347 332 321 294 286 284 277 280 276 278 282 283 278 276 275 274 272 271 271 271 271 269
99 93 144 136 155 147 141 134 119 143 168 173 160 150 146 141 131 115 102 94 85 77 71 59 46 34 18 6 349 331 320 313 306 300 295 291 289 289 290 289 288 285 285 278 275 275 273 271 268
134 139 111 134 144 144 149 139 144 109 176 158 153 148 146 142 133 117 99 89 79 74 60 55 51 39 27 24 20 2 342 323 312 304 299 295 293 294 292 292 292 292 290 286 283 279 277 275 271
117 100 154 152 144 146 142 147 145 162 154 149 151 151 148 143 135 130 119 101 91 89 87 76 55 43 35 27 19 12 5 6 8 0 346 329 316 309 305 301 297 294 293 291 288 285 282 279 276
124 101 130 146 145 152 153 157 171 162 159 156 159 159 158 153 152 145 132 116 101 95 90 73 53 42 34 29 21 17 17 14 10 11 8 359 349 338 330 321 311 303 297 294 291 289 286 282 277
103 120 129 146 160 158 143 155 205 165 167 168 171 172 171 167 168 154 142 130 120 109 92 61 41 27 19 17 16 12 5 0 357 354 353 353 350 345 339 335 331 323 312 303 295 291 288 284 281
109 93 173 151 173 164 200 192 179 175 172 178 181 185 185 188 179 170 165 158 145 126 80 26 4 354 351 347 350 347 338 336 335 335 334 336 338 338 335 332 327 322 319 315 308 300 291 287 285
73 186 202 175 191 163 213 182 189 180 182 185 192 195 197 197 192 187 187 187 186 182 199 312 323 322 322 321 315 319 315 316 319 320 319 318 318 318 319 320 321 319 314 310 309 304 298 290 284
179 175 183 192 169 193 199 214 165 183 188 197 199 204 206 206 199 193 201 208 221 228 249 275 288 287 295 297 293 294 300 306 308 310 310 309 311 311 311 312 312 313 310 308 306 303 297 291 288
147 157 174 183 202 202 211 220 189 189 201 202 205 205 206 207 201 203 210 219 229 236 244 259 266 275 280 282 284 286 288 293 297 303 306 306 307 306 306 305 305 306 304 303 301 299 295 290 285
160 176 180 143 54 210 192 207 214 191 208 206 206 209 209 209 210 213 220 231 240 249 254 261 266 271 273 277 278 277 280 287 294 299 302 304 305 305 303 301 299 298 298 297 295 292 289 282 278
165 193 178 185 114 79 160 194 184 193 226 233 231 224 215 212 215 219 227 239 253 260 263 269 269 273 280 282 279 274 282 290 296 299 301 302 303 302 301 299 298 297 295 288 286 285 279 276 269
178 180 145 139 198 232 316 246 213 187 222 233 234 224 219 216 217 224 232 246 255 255 262 265 269 280 284 282 277 284 293 298 299 301 304 305 305 304 302 301 300 298 294 286 284 280 275 269 264
116 126 87 82 124 232 189 254 233 232 241 215 218 219 212 207 214 229 239 244 246 254 261 270 280 283 284 287 293 299 300 302 304 306 305 305 306 305 305 303 300 297 294 288 282 281 275 265 260
141 100 67 71 114 252 258 251 230 213 244 216 175 180 184 198 215 222 227 239 247 252 264 268 281 286 294 299 301 305 307 308 308 307 307 309 308 307 306 304 304 303 301 297 293 288 277 267 261
150 154 238 207 196 274 106 246 279 289 261 262 179 180 189 199 202 214 229 231 232 230 249 280 297 304 308 309 311 311 311 310 311 311 311 309 311 310 307 308 304 300 296 296 295 284 275 272 264
185 210 180 217 215 56 159 240 88 293 288 237 198 204 204 202 202 212 204 193 199 233 287 307 311 314 315 317 317 316 316 315 313 311 313 314 312 310 312 308 306 301 296 293 288 290 280 264 264
149 199 97 109 75 258 233 254 258 239 225 189 195 195 203 185 197 175 169 176 194 304 316 320 323 322 322 323 322 320 320 321 321 320 319 319 321 321 319 314 310 307 302 295 287 284 279 266 266
222 140 148 130 194 250 210 267 248 211 221 208 203 212 196 169 153 156 156 158 334 330 330 327 327 328 329 327 327 327 331 333 331 329 329 327 323 323 322 320 315 309 305 299 290 280 274 267 266
148 182 70 117 188 218 268 241 216 219 218 217 224 218 181 149 144 148 137 4 340 332 332 333 333 332 329 330 333 336 340 340 338 333 330 326 325 328 324 321 316 311 307 301 293 283 273 264 260
230 201 179 216 201 194 262 259 180 274 266 248 247 198 156 140 135 129 87 343 336 338 338 339 335 332 334 336 340 343 343 341 340 336 335 333 328 326 325 322 321 318 310 303 293 284 272 261 255
Wind_Speed_850mb
3 2 3 2 4 5 7 7 3 19 14 4 20 1 7 12 10 8 17 27 28 19 18 12 13 13 12 13 14 15 13 12 10 10 10 10 12 15 16 16 14 12 12 13 14 13 13 14 14
3 3 4 1 4 15 8 6 20 8 12 25 21 14 10 11 13 13 13 20 18 23 23 21 18 14 12 12 10 9 9 8 7 7 5 4 7 11 14 14 13 13 13 14 15 16 17 18 19
5 5 4 4 4 10 11 2 11 20 20 11 10 15 8 9 11 5 12 10 11 17 14 12 11 11 12 13 12 10 9 9 9 7 5 3 4 6 10 14 16 17 18 20 22 22 22 23 23
7 4 8 8 18 5 5 13 25 27 13 6 20 20 17 19 3 11 15 8 9 22 14 11 9 7 8 9 10 10 9 8 7 7 6 6 6 8 11 14 17 19 21 23 25 26 27 27 28
7 4 7 9 8 2 3 9 19 17 11 8 13 15 13 18 15 13 20 15 13 19 15 11 10 7 5 6 10 11 10 9 9 10 11 12 13 14 16 18 21 23 25 27 28 30 31 31 32
5 3 11 14 11 3 1 11 12 11 19 24 21 17 10 12 14 22 16 14 17 15 14 12 9 7 6 4 6 9 12 14 14 14 14 16 18 20 22 24 26 28 30 31 32 33 33 35 35
7 5 7 12 18 16 14 14 9 19 27 17 8 10 9 18 24 26 23 20 17 15 13 11 9 6 5 3 4 8 12 14 17 18 18 19 23 25 27 31 34 36 37 38 39 39 39 39 40
8 6 9 3 9 14 11 8 10 15 11 11 11 8 12 24 29 26 26 24 21 19 14 11 10 6 4 4 5 7 10 14 16 19 23 25 27 30 33 36 39 41 43 43 44 46 46 46 46
4 7 14 12 25 17 16 12 6 10 15 10 8 17 32 30 26 22 21 21 19 18 17 13 9 9 11 7 9 14 17 19 21 23 27 27 31 35 39 42 42 44 46 47 48 49 49 50 53
5 9 7 5 15 25 21 17 18 10 11 14 29 37 34 31 26 17 19 24 23 24 22 19 17 16 16 16 17 19 21 27 30 33 33 34 40 43 44 45 45 45 47 49 47 46 48 51 53
4 9 8 7 16 41 26 18 8 29 8 21 42 42 37 33 32 29 27 22 19 20 18 19 21 23 22 21 20 22 26 29 33 38 42 45 47 48 48 49 50 50 51 50 49 49 45 42 42
6 5 6 20 30 26 30 26 25 0 7 22 36 45 46 41 34 27 21 21 21 19 18 21 27 31 35 34 33 29 26 26 30 34 37 40 43 46 49 50 51 53 53 53 55 57 58 57 57
3 10 7 23 22 26 34 22 13 10 27 37 43 42 43 38 34 32 33 35 33 25 18 22 27 32 39 38 39 40 34 31 32 34 35 37 41 45 47 48 51 55 56 57 58 59 61 63 62
2 13 18 22 25 22 28 15 11 16 37 37 40 39 40 38 38 38 37 35 31 26 23 21 23 24 31 32 33 34 29 30 35 40 43 40 38 39 43 46 50 53 56 57 59 59 60 60 61
5 10 20 20 27 16 26 11 15 43 39 38 38 42 41 41 36 28 28 26 20 17 16 15 12 16 20 22 25 28 26 28 32 36 42 44 42 43 45 48 49 51 52 57 61 62 62 63 63
5 3 19 16 25 16 22 25 16 45 50 46 42 39 43 45 35 30 25 20 13 11 9 8 12 16 19 19 20 22 21 26 30 33 38 42 45 48 51 52 53 55 57 59 61 63 65 61 54
2 12 13 11 24 14 17 10 34 53 51 48 49 48 49 45 38 32 26 19 12 9 6 5 11 17 21 23 23 26 29 29 33 37 39 41 44 49 55 61 63 65 67 65 64 64 64 65 64
13 10 5 6 13 19 29 14 18 55 58 59 50 44 46 43 46 35 30 24 20 16 13 13 18 22 26 31 34 33 35 37 42 43 44 48 55 60 66 71 77 79 79 75 71 69 65 64 60
10 8 7 4 5 19 29 17 19 47 46 44 47 50 49 48 42 38 34 30 30 28 26 25 27 27 34 42 45 45 44 45 48 52 55 58 65 70 75 79 84 89 88 88 82 77 69 64 49
9 7 5 5 3 13 14 19 6 37 55 57 53 51 50 45 48 43 40 39 38 32 33 35 35 38 46 49 51 51 51 54 56 59 65 72 78 85 89 92 94 93 94 93 88 81 74 56 45
7 8 8 3 6 7 8 12 11 13 25 31 40 43 43 49 49 48 41 40 36 35 37 41 41 45 49 48 45 46 50 56 61 64 79 87 94 99 102 102 100 95 86 65 65 66 65 60 49
9 7 10 7 6 9 5 12 10 16 20 24 37 45 54 54 54 45 40 38 38 39 39 37 38 43 41 36 35 42 49 61 70 83 94 103 105 108 105 101 93 84 70 62 61 56 55 53 56
4 5 6 4 5 4 5 9 9 5 19 21 22 30 42 48 44 39 38 34 35 33 30 31 30 23 24 29 36 47 61 74 85 95 103 107 102 95 91 84 80 76 63 59 58 59 59 54 53
22 10 10 6 1 10 7 11 10 10 8 3 9 21 31 36 36 34 29 30 26 22 19 14 17 21 25 35 48 62 76 90 99 101 98 88 84 82 76 69 65 62 65 67 68 57 55 60 60
5 9 3 6 7 4 4 7 13 6 8 9 20 26 25 28 24 19 23 21 16 13 10 13 18 27 40 53 66 79 90 97 97 92 77 81 83 65 61 59 56 57 58 65 60 66 62 57 55
11 8 7 6 3 4 3 9 2 3 11 13 21 27 26 20 13 14 13 15 12 8 9 18 30 43 56 70 81 90 94 89 83 73 80 75 73 67 68 65 66 67 66 65 60 59 57 61 57
10 9 6 11 3 6 1 5 15 6 5 16 19 23 25 12 11 12 14 11 6 6 18 31 44 58 71 82 89 87 82 79 75 70 66 64 64 64 64 65 64 63 62 60 57 56 52 53 62
4 21 7 3 6 7 4 7 8 10 18 18 20 34 20 10 13 15 13 6 4 17 30 43 57 71 79 82 79 75 73 66 62 60 60 61 61 63 65 65 63 63 59 56 53 54 50 49 54
10 8 8 6 2 7 5 5 9 17 19 24 30 23 13 14 17 15 8 3 15 27 41 56 68 75 77 75 71 67 59 59 59 58 58 60 62 63 64 64 63 62 58 53 49 49 49 50 48
3 8 13 9 10 3 2 12 5 8 13 14 20 12 15 19 19 13 3 12 25 39 53 64 72 74 71 69 64 55 55 56 59 60 60 60 61 60 61 60 59 56 52 49 49 47 45 44 42
Wind_Direction_850mb
227 263 39 143 195 107 86 86 45 124 151 108 135 160 111 49 24 77 134 105 132 140 122 135 147 134 124 113 119 131 135 137 138 142 155 173 183 184 189 191 197 206 219 228 232 236 242 251 251
166 120 111 185 119 116 81 344 127 105 126 123 112 113 82 71 50 112 109 109 147 146 148 151 147 147 142 128 114 117 129 130 130 131 136 154 187 197 206 219 230 237 243 248 252 253 255 258 259
138 127 165 81 104 117 123 256 135 112 123 133 106 71 56 19 18 76 121 115 150 161 145 126 123 141 151 151 147 139 140 145 144 140 138 164 209 230 242 250 257 262 264 263 264 267 266 264 265
165 117 64 101 118 92 60 149 142 127 97 100 119 83 85 26 63 125 130 132 178 166 146 121 130 128 138 163 174 174 166 165 168 174 180 199 236 250 259 267 269 269 272 273 272 270 267 266 267
104 82 91 107 91 2 306 159 140 117 109 128 149 112 83 36 52 131 165 136 140 153 124 116 110 103 119 164 184 199 202 200 204 215 220 225 232 243 254 262 267 270 273 276 277 276 273 271 271
91 85 121 122 103 84 295 174 115 96 117 118 98 94 75 67 88 88 103 114 103 116 128 126 104 93 106 150 189 206 215 222 230 238 245 251 253 255 259 262 264 267 271 272 273 273 274 274 272
107 89 110 126 114 118 141 143 101 119 130 71 91 89 101 96 102 100 105 107 116 113 99 84 72 56 67 110 188 211 216 224 233 242 248 253 257 257 257 261 263 264 266 269 271 271 270 270 270
103 96 130 58 133 121 142 109 102 114 87 92 116 128 134 128 116 109 103 107 107 100 90 77 60 49 334 280 240 235 236 233 235 241 244 244 251 256 258 259 260 262 264 265 267 271 272 270 269
67 116 134 135 150 140 146 143 83 89 109 66 70 133 136 128 126 123 109 90 82 80 68 60 28 15 17 333 279 259 263 257 252 258 259 259 264 272 275 273 271 269 268 268 268 270 269 270 269
43 107 107 138 147 148 140 147 132 143 120 75 102 125 131 132 133 135 117 99 87 78 68 54 38 22 8 347 332 321 294 286 284 277 280 276 278 282 283 278 276 275 274 272 271 271 271 271 269
99 93 144 136 155 147 141 134 119 143 168 173 160 150 146 141 131 115 102 94 85 77 71 59 46 34 18 6 349 331 320 313 306 300 295 291 289 289 290 289 288 285 285 278 275 275 273 271 268
134 139 111 134 144 144 149 139 144 109 176 158 153 148 146 142 133 117 99 89 79 74 60 55 51 39 27 24 20 2 342 323 312 304 299 295 293 294 292 292 292 292 290 286 283 279 277 275 271
117 100 154 152 144 146 142 147 145 162 154 149 151 151 148 143 135 130 119 101 91 89 87 76 55 43 35 27 19 12 5 6 8 0 346 329 316 309 305 301 297 294 293 291 288 285 282 279 276
124 101 130 146 145 152 153 157 171 162 159 156 159 159 158 153 152 145 132 116 101 95 90 73 53 42 34 29 21 17 17 14 10 11 8 359 349 338 330 321 311 303 297 294 291 289 286 282 277
103 120 129 146 160 158 143 155 205 165 167 168 171 172 171 167 168 154 142 130 120 109 92 61 41 27 19 17 16 12 5 0 357 354 353 353 350 345 339 335 331 323 312 303 295 291 288 284 281
109 93 173 151 173 164 200 192 179 175 172 178 181 185 185 188 179 170 165 158 145 126 80 26 4 354 351 347 350 347 338 336 335 335 334 336 338 338 335 332 327 322 319 315 308 300 291 287 285
73 186 202 175 191 163 213 182 189 180 182 185 192 195 197 197 192 187 187 187 186 182 199 312 323 322 322 321 315 319 315 316 319 320 319 318 318 318 319 320 321 319 314 310 309 304 298 290 284
179 175 183 192 169 193 199 214 165 183 188 197 199 204 206 206 199 193 201 208 221 228 249 275 288 287 295 297 293 294 300 306 308 310 310 309 311 311 311 312 312 313 310 308 306 303 297 291 288
147 157 174 183 202 202 211 220 189 189 201 202 205 205 206 207 201 203 210 219 229 236 244 259 266 275 280 282 284 286 288 293 297 303 306 306 307 306 306 305 305 306 304 303 301 299 295 290 285
160 176 180 143 54 210 192 207 214 191 208 206 206 209 209 209 210 213 220 231 240 249 254 261 266 271 273 277 278 277 280 287 294 299 302 304 305 305 303 301 299 298 298 297 295 292 289 282 278
165 193 178 185 114 79 160 194 184 193 226 233 231 224 215 212 215 219 227 239 253 260 263 269 269 273 280 282 279 274 282 290 296 299 301 302 303 302 301 299 298 297 295 288 286 285 279 276 269
178 180 145 139 198 232 316 246 213 187 222 233 234 224 219 216 217 224 232 246 255 255 262 265 269 280 284 282 277 284 293 298 299 301 304 305 305 304 302 301 300 298 294 286 284 280 275 269 264
116 126 87 82 124 232 189 254 233 232 241 215 218 219 212 207 214 229 239 244 246 254 261 270 280 283 284 287 293 299 300 302 304 306 305 305 306 305 305 303 300 297 294 288 282 281 275 265 260
141 100 67 71 114 252 258 251 230 213 244 216 175 180 184 198 215 222 227 239 247 252 264 268 281 286 294 299 301 305 307 308 308 307 307 309 308 307 306 304 304 303 301 297 293 288 277 267 261
150 154 238 207 196 274 106 246 279 289 261 262 179 180 189 199 202 214 229 231 232 230 249 280 297 304 308 309 311 311 311 310 311 311 311 309 311 310 307 308 304 300 296 296 295 284 275 272 264
185 210 180 217 215 56 159 240 88 293 288 237 198 204 204 202 202 212 204 193 199 233 287 307 311 314 315 317 317 316 316 315 313 311 313 314 312 310 312 308 306 301 296 293 288 290 280 264 264
149 199 97 109 75 258 233 254 258 239 225 189 195 195 203 185 197 175 169 176 194 304 316 320 323 322 322 323 322 320 320 321 321 320 319 319 321 321 319 314 310 307 302 295 287 284 279 266 266
222 140 148 130 194 250 210 267 248 211 221 208 203 212 196 169 153 156 156 158 334 330 330 327 327 328 329 327 327 327 331 333 331 329 329 327 323 323 322 320 315 309 305 299 290 280 274 267 266
148 182 70 117 188 218 268 241 216 219 218 217 224 218 181 149 144 148 137 4 340 332 332 333 333 332 329 330 333 336 340 340 338 333 330 326 325 328 324 321 316 311 307 301 293 283 273 264 260
230 201 179 216 201 194 262 259 180 274 266 248 247 198 156 140 135 129 87 343 336 338 338 339 335 332 334 336 340 343 343 341 340 336 335 333 328 326 325 322 321 318 310 303 293 284 272 261 255